ASTEX 1

Last updated on Sun Jun 21 2026 00:02:14 GMT+0000 (Coordinated Universal Time)

1 05560U 71089A 26171.45181061 .00000260 00000+0 66146-4 0 9998 2 05560 92.6996 184.9072 0017990 96.6331 263.6924 14.50853638877203
UTC large
Height (km)
Speed (km/s)
/
Latitude / Longitude
Inclination (degrees)
Orbital Period (minutes)
Azimuth
Elevation
Range (km)
Doppler Factor

Next 0 passes for location: London (51.5072 / 0.1276)

No passes found over London.
ASTEX 1